Weather History for Monroe, WI

Change the Weather History Date:

Wednesday, April 10, 2013

  Actual Average Record
Temperature  
Mean Temperature 34 °F -  
Max Temperature 37 °F 0 °F 80 °F (2005)
Min Temperature 32 °F - 24 °F (2007)
Degree Days  
Heating Degree Days 30    
Moisture  
Dew Point 36 °F    
Average Humidity 100    
Maximum Humidity 100    
Minimum Humidity 100    
Precipitation  
Precipitation 0.95 in - - ()
Sea Level Pressure  
Sea Level Pressure 29.91 in    
Wind  
Wind Speed 18 mph (NE)    
Max Wind Speed 26 mph    
Max Gust Speed 39 mph    
Visibility 8 miles    
Events Rain , Snow , Thunderstorm    
Averages and records for this station are not official NWS values.
T = Trace of Precipitation, MM = Missing Value Source: NWS Daily Summary

Daily Weather History Graph

Daily Weather History Graph

Search for Another Location

Airport:

Trip Planner

Search our weather history database for the weather conditions in past years. The results will help you decide how hot, cold, wet, or windy it might be!

Date:

Astronomy

Apr. 10, 2013 Rise Set
Actual Time 6:24 AM CDT 7:34 PM CDT
Civil Twilight 5:55 AM CDT 8:04 PM CDT
Nautical Twilight 5:21 AM CDT 8:38 PM CDT
Astronomical Twilight 4:44 AM CDT 9:15 PM CDT
Moon 6:20 AM CDT (4/10) 8:12 PM CDT (4/10)
Length of Visible Light 14h 08m
Length of Day
13h 10m
New Moon, 0% of the Moon is Illuminated
Apr 10
New Moon
Apr 18
First Quarter
Apr 25
Full
May 2
Last Quarter
May 9
New

Hourly Weather History & Observations

Time (CDT) Temp. Windchill Dew Point Humidity Pressure Visibility Wind Dir Wind Speed Gust Speed Precip Events Conditions
12:15 AM 37.4 °F 28.5 °F 37.4 °F 100% 29.92 in 7.0 mi NE 15.0 mph 20.7 mph N/A   Light Drizzle
12:35 AM 37.4 °F 28.9 °F 37.4 °F 100% 29.92 in 7.0 mi NE 13.8 mph - N/A Thunderstorm Unknown
12:55 AM 37.4 °F 27.5 °F 37.4 °F 100% 29.92 in 10.0 mi NE 18.4 mph 24.2 mph N/A Rain Rain
1:15 AM 37.4 °F 26.9 °F 37.4 °F 100% 29.92 in 10.0 mi NE 20.7 mph - N/A   Overcast
1:35 AM 35.6 °F 24.5 °F 35.6 °F 100% 29.93 in 1.5 mi NNE 20.7 mph - 0.26 in Rain , Thunderstorm Light Thunderstorms and Rain
1:55 AM 35.6 °F 25.2 °F 35.6 °F 100% 29.93 in 10.0 mi NNE 18.4 mph - 0.26 in   Light Drizzle
2:15 AM 35.6 °F 24.0 °F 35.6 °F 100% 29.91 in 10.0 mi NE 23.0 mph 29.9 mph N/A   Overcast
2:35 AM 35.6 °F 23.7 °F 35.6 °F 100% 29.90 in 10.0 mi NE 24.2 mph 28.8 mph N/A   Overcast
2:55 AM 35.6 °F 23.4 °F 35.6 °F 100% 29.89 in 10.0 mi NE 25.3 mph 32.2 mph N/A Thunderstorm Overcast
3:15 AM 33.8 °F 20.8 °F 33.8 °F 100% 29.91 in 10.0 mi NNE 26.5 mph 32.2 mph N/A   Overcast
3:35 AM 33.8 °F 20.8 °F 33.8 °F 100% 29.88 in 10.0 mi NE 26.5 mph 39.1 mph N/A   Overcast
3:55 AM 33.8 °F 20.8 °F 33.8 °F 100% 29.89 in 10.0 mi NE 26.5 mph 32.2 mph N/A   Overcast
4:15 AM 33.8 °F 22.2 °F 33.8 °F 100% 30.00 in 5.0 mi NNW 20.7 mph 34.5 mph N/A Thunderstorm Thunderstorm
4:35 AM 32.0 °F 19.2 °F 32.0 °F 100% 29.96 in 3.0 mi NNE 23.0 mph 32.2 mph 0.03 in Snow , Thunderstorm Light Thunderstorms and Snow
4:55 AM 32.0 °F 23.6 °F 32.0 °F 100% 30.02 in 2.0 mi North 10.4 mph 19.6 mph 0.13 in Snow , Thunderstorm Light Thunderstorms and Snow
5:15 AM 32.0 °F 20.1 °F 32.0 °F 100% 29.95 in 5.0 mi NE 19.6 mph 27.6 mph 0.04 in Thunderstorm Thunderstorm
5:35 AM 32.0 °F 19.5 °F 32.0 °F 100% 29.90 in 7.0 mi NE 21.9 mph 26.5 mph 0.08 in   Overcast
5:55 AM 32.0 °F 21.6 °F 32.0 °F 100% 29.87 in 7.0 mi ENE 15.0 mph 25.3 mph 0.12 in Thunderstorm Overcast
6:15 AM 32.0 °F 20.5 °F 32.0 °F 100% 29.90 in 10.0 mi NNE 18.4 mph 25.3 mph N/A Thunderstorm Overcast
6:35 AM 32.0 °F 23.6 °F 32.0 °F 100% 29.93 in 10.0 mi NE 10.4 mph 17.3 mph 0.01 in Thunderstorm Thunderstorm
6:55 AM 32.0 °F 23.0 °F 32.0 °F 100% 29.95 in 5.0 mi East 11.5 mph 17.3 mph 0.08 in   Overcast
7:15 AM 32.0 °F 23.6 °F 32.0 °F 100% 29.98 in 3.0 mi North 10.4 mph 17.3 mph 0.03 in   Overcast
7:35 AM 32.0 °F 18.4 °F 32.0 °F 100% 29.84 in 10.0 mi NNE 26.5 mph 34.5 mph 0.04 in   Overcast
7:55 AM 33.8 °F 21.0 °F 33.8 °F 100% 29.84 in 10.0 mi NNE 25.3 mph 31.1 mph 0.04 in   Overcast
8:15 AM 33.8 °F 24.8 °F 33.8 °F 100% 29.92 in 10.0 mi NNE 12.7 mph 23.0 mph N/A   Overcast
8:35 AM 33.8 °F 22.2 °F 33.8 °F 100% 29.90 in 10.0 mi NNE 20.7 mph 25.3 mph N/A   Overcast
8:55 AM 33.8 °F 23.2 °F 33.8 °F 100% 29.89 in 10.0 mi NE 17.3 mph 24.2 mph N/A   Overcast
9:15 AM 33.8 °F 23.2 °F 33.8 °F 100% 29.90 in 10.0 mi NE 17.3 mph 25.3 mph N/A   Overcast
9:35 AM 33.8 °F 22.5 °F 33.8 °F 100% 29.91 in 10.0 mi NE 19.6 mph 25.3 mph N/A   Overcast
9:55 AM 35.6 °F 27.5 °F 35.6 °F 100% 30.00 in 10.0 mi NE 11.5 mph 15.0 mph N/A   Overcast
10:15 AM 35.6 °F 29.2 °F 35.6 °F 100% 30.03 in 10.0 mi North 8.1 mph - N/A   Overcast
10:35 AM 35.6 °F 26.2 °F 35.6 °F 100% 29.99 in 7.0 mi NE 15.0 mph - N/A   Overcast
10:55 AM 35.6 °F 24.2 °F 35.6 °F 100% 29.92 in 5.0 mi NE 21.9 mph - N/A   Overcast
11:15 AM 35.6 °F 24.5 °F 35.6 °F 100% 29.90 in 10.0 mi NNE 20.7 mph - N/A   Overcast
11:35 AM 35.6 °F 23.4 °F 35.6 °F 100% 29.87 in 10.0 mi NE 25.3 mph 32.2 mph N/A   Overcast
12:15 PM 37.4 °F 27.2 °F 37.4 °F 100% 29.92 in 10.0 mi NE 19.6 mph 25.3 mph N/A   Overcast
12:35 PM 37.4 °F 27.2 °F 37.4 °F 100% 29.94 in 10.0 mi NE 19.6 mph 23.0 mph N/A   Light Drizzle
1:15 PM 37.4 °F 26.6 °F 37.4 °F 100% 29.93 in 7.0 mi NE 21.9 mph 25.3 mph 0.01 in Rain Rain
1:35 PM 37.4 °F 33.8 °F 37.4 °F 100% 29.99 in 4.0 mi ENE 4.6 mph - 0.05 in Rain Rain
1:55 PM 37.4 °F 29.8 °F 37.4 °F 100% 30.01 in 2.0 mi NNE 11.5 mph - 0.11 in Rain Rain
2:15 PM 37.4 °F 31.4 °F 37.4 °F 100% 30.00 in 4.0 mi NE 8.1 mph - 0.01 in Rain Light Rain
2:35 PM 37.4 °F 28.5 °F 37.4 °F 100% 29.99 in 7.0 mi NE 15.0 mph - 0.01 in   Light Drizzle
2:55 PM 37.4 °F 27.2 °F 37.4 °F 100% 29.95 in 10.0 mi NNE 19.6 mph - 0.01 in Rain Light Rain
3:15 PM 37.4 °F 26.6 °F 37.4 °F 100% 29.93 in 10.0 mi NNE 21.9 mph 28.8 mph N/A   Light Drizzle
3:35 PM 37.4 °F 27.2 °F 37.4 °F 100% 29.91 in 10.0 mi NNE 19.6 mph 31.1 mph N/A   Light Drizzle
3:55 PM 37.4 °F 27.5 °F 37.4 °F 100% 29.91 in 10.0 mi NNE 18.4 mph 28.8 mph N/A   Light Drizzle
4:15 PM 37.4 °F 26.9 °F 37.4 °F 100% 29.90 in 10.0 mi NNE 20.7 mph 27.6 mph N/A   Overcast
4:35 PM 37.4 °F 26.4 °F 37.4 °F 100% 29.88 in 10.0 mi NNE 23.0 mph 29.9 mph N/A   Light Drizzle
4:55 PM 37.4 °F 27.2 °F 37.4 °F 100% 29.88 in 10.0 mi NE 19.6 mph 28.8 mph N/A   Light Drizzle
5:15 PM 37.4 °F 27.8 °F 37.4 °F 100% 29.89 in 10.0 mi NE 17.3 mph 26.5 mph N/A   Overcast
5:35 PM 37.4 °F 28.5 °F 37.4 °F 100% 29.89 in 10.0 mi ENE 15.0 mph 24.2 mph N/A   Overcast
5:55 PM 37.4 °F 27.5 °F 37.4 °F 100% 29.86 in 10.0 mi NE 18.4 mph 25.3 mph N/A Rain Light Rain
6:15 PM 37.4 °F 27.5 °F 37.4 °F 100% 29.86 in 10.0 mi ENE 18.4 mph 27.6 mph N/A   Light Drizzle
6:35 PM 37.4 °F 28.5 °F 37.4 °F 100% 29.87 in 10.0 mi ENE 15.0 mph 24.2 mph N/A   Overcast
6:55 PM 37.4 °F 27.2 °F 37.4 °F 100% 29.85 in 10.0 mi NE 19.6 mph 25.3 mph N/A Rain Light Rain
7:15 PM 37.4 °F 26.1 °F 37.4 °F 100% 29.84 in 10.0 mi NE 24.2 mph - N/A   Overcast
7:35 PM 37.4 °F 27.8 °F 37.4 °F 100% 29.86 in 10.0 mi NE 17.3 mph 21.9 mph N/A   Overcast
7:55 PM 37.4 °F 28.9 °F 37.4 °F 100% 29.89 in 10.0 mi NE 13.8 mph 20.7 mph N/A   Overcast
8:15 PM 37.4 °F 27.2 °F 37.4 °F 100% 29.89 in 10.0 mi NE 19.6 mph 25.3 mph N/A   Overcast
8:35 PM 37.4 °F 27.2 °F 37.4 °F 100% 29.89 in 10.0 mi NE 19.6 mph 23.0 mph N/A Rain Rain
8:55 PM 37.4 °F 27.2 °F 37.4 °F 100% 29.90 in 7.0 mi NE 19.6 mph 27.6 mph 0.01 in Rain Rain
9:15 PM 35.6 °F 24.0 °F 35.6 °F 100% 29.89 in 5.0 mi NE 23.0 mph 28.8 mph 0.02 in Rain Light Rain
9:35 PM 35.6 °F 24.5 °F 35.6 °F 100% 29.86 in 7.0 mi NE 20.7 mph 28.8 mph 0.04 in Rain Light Rain
9:55 PM 35.6 °F 25.5 °F 35.6 °F 100% 29.87 in 5.0 mi NE 17.3 mph 28.8 mph 0.05 in Rain Light Rain
10:15 PM 35.6 °F 24.5 °F 35.6 °F 100% 29.86 in 5.0 mi NE 20.7 mph 29.9 mph 0.01 in Rain Rain
10:35 PM 35.6 °F 24.8 °F 35.6 °F 100% 29.86 in 7.0 mi NE 19.6 mph 24.2 mph 0.04 in Rain Light Rain
10:55 PM 35.6 °F 25.2 °F 35.6 °F 100% 29.85 in 5.0 mi NE 18.4 mph 26.5 mph 0.07 in Rain Light Rain
11:15 PM 35.6 °F 24.8 °F 35.6 °F 100% 29.85 in 5.0 mi NE 19.6 mph 26.5 mph 0.03 in Rain Light Rain
11:35 PM 35.6 °F 24.5 °F 35.6 °F 100% 29.84 in 7.0 mi NE 20.7 mph 27.6 mph 0.04 in Rain Light Rain
11:55 PM 35.6 °F 25.2 °F 35.6 °F 100% 29.84 in 5.0 mi NE 18.4 mph 23.0 mph 0.07 in Rain Light Rain